Location: Campillo
(40.8621°N, 4.2488°W)
Time: 20:15:31
(UTC+00:00)

Daily predictions for brighter satellites

Satellite Brightness Start Highest point End
(mag) Time Altitude Azimuth Time Altitude Azimuth Time Altitude Azimuth
Ariane Rocket 3.8 19:49:55 10° SE 19:54:25 33° ENE 19:58:55 10° N
Cosmos 1980 Rocket 2.7 19:48:54 10° NNW 19:54:29 65° WSW 20:00:03 10° S
CZ-4 R/B 3.9 19:51:03 10° SSW 19:54:31 25° W 19:58:01 10° NW
NOSS 2-1 (C) 3.6 19:57:02 10° S 20:00:08 31° ESE 20:03:04 10° NE
Cosmos 2333 Rocket 4.3 20:01:54 10° NNE 20:03:35 11° NE 20:05:16 10° ENE
Cosmos 158 Rocket 4.1 20:01:02 10° SSW 20:06:13 86° WNW 20:11:34 10° NNE
CSL-04 Rocket 4.3 20:00:55 10° S 20:06:14 59° WSW 20:11:31 10° NNW
NOSS 2-1 (D) 3.3 20:04:39 10° S 20:07:54 39° ESE 20:10:58 10° NE
Nadezhda 4 Rocket 4.0 20:02:16 10° S 20:08:25 77° E 20:14:41 10° N
Cosmos 1076 Rocket 3.7 20:04:30 10° S 20:08:51 81° W 20:13:15 10° N
Cosmos 2322 Rocket 3.0 20:04:11 10° N 20:09:22 36° ENE 20:14:27 10° SE
Cosmos 332 Rocket 3.9 20:05:25 10° NNW 20:10:19 69° ENE 20:15:12 10° SSE
SJ-6B 2.7 20:07:40 10° SSE 20:11:23 88° WSW 20:15:10 10° NNW
Atlas Centaur 2 3.7 20:08:45 10° WSW 20:12:18 18° SSW 20:15:24 10° SSE
IGS 5A 4.3 20:16:27 11° SE 20:20:05 34° ENE 20:23:50 10° N
Cosmos 1151 Rocket 4.3 20:16:52 10° NNE 20:20:25 24° ENE 20:23:16 13° ESE
Cosmos 2219 Rocket 4.3 20:19:45 10° NNE 20:22:04 12° NE 20:24:22 10° ENE
SL-27 R/B 3.6 20:21:25 10° SSE 20:24:23 25° E 20:27:23 10° NE
Cosmos 304 Rocket 3.8 20:22:09 10° NNW 20:26:58 87° WSW 20:31:44 10° SSE
ATLAS 5 CENTAUR R/B 4.3 20:27:37 10° N 20:30:35 15° NE 20:33:49 10° ENE
BREEZE-M DEB (TANK) 2.6 20:29:39 10° NW 20:32:31 61° NNE 20:38:10 14° ESE
Cosmos 923 Rocket 4.1 20:28:24 10° SSW 20:33:44 83° WNW 20:39:07 10° NNE
BREEZE-M R/B 3.8 20:28:40 10° SSW 20:35:16 31° SSE 20:38:33 10° E
Landsat 7 4.1 20:33:40 14° SE 20:37:34 50° ENE 20:42:10 10° N
Meteor 1-26 Rocket 4.3 20:33:32 10° N 20:39:22 67° ENE 20:44:35 12° SSE
SL-16 R/B 2.2 20:36:39 10° NNW 20:42:22 86° ENE 20:47:10 15° SSE
Cosmos 1328 Rocket 4.5 20:39:41 10° NNE 20:43:39 31° ENE 20:45:46 21° ESE
OBJECT-B 3.2 20:41:42 10° SSW 20:44:14 22° W 20:46:48 10° NW
Cosmos 1766 Rocket 3.8 20:40:24 11° SSE 20:44:22 47° E 20:48:33 10° NNE
Resurs 01 Rocket 1.7 20:41:45 15° SSE 20:45:19 66° ENE 20:49:45 10° N
Cosmos 220 Rocket 4.3 20:41:22 10° N 20:45:40 54° ENE 20:48:21 22° SE
COSMOS 2455 3.5 20:41:13 10° S 20:46:28 33° ESE 20:51:46 10° NE
Cosmos 2056 Rocket 4.0 20:42:28 10° N 20:47:33 44° ENE 20:50:43 21° SE
SPOT 1/Viking Rocket 4.0 20:45:37 19° SE 20:49:00 44° ENE 20:53:57 10° N
Cosmos 1271 Rocket 2.8 20:46:37 10° NNW 20:50:37 81° W 20:53:55 15° S
Cosmos 1553 Rocket 4.4 20:47:58 10° N 20:53:44 43° ENE 20:57:22 22° SE
Spot 2 Rocket 4.5 20:51:22 20° ESE 20:53:54 31° ENE 20:58:22 10° N
Cosmos 2151 4.3 20:50:44 10° SSW 20:54:45 41° WNW 20:58:49 10° N
Cosmos 2237 4.3 20:52:50 10° NNW 20:58:34 68° ENE 21:02:08 23° SE
H-2A R/B 3.4 20:57:31 10° SW 20:59:00 11° SSW 21:00:04 10° SSW
MetOp-B 4.2 20:57:28 21° SSE 21:01:04 65° ENE 21:06:24 10° N
COSMOS 2428 4.4 20:58:44 10° N 21:02:56 21° NE 21:05:44 15° E
Meteor 2-3 Rocket 4.4 20:57:46 10° SSW 21:03:20 58° WNW 21:09:02 10° N
ERS-2 3.0 21:01:23 10° N 21:04:56 51° WNW 21:08:27 10° SSW
NOSS 2-1 (E) 4.0 21:02:56 10° SW 21:06:09 44° NW 21:09:21 10° NNE
Cosmos 1680 Rocket 4.2 21:01:26 10° SSW 21:06:36 56° WNW 21:11:47 10° N
USA 276 4.0 21:05:08 10° W 21:07:29 19° SW 21:08:19 17° SSW
Cosmos 2112 Rocket 4.5 21:02:51 10° SSW 21:08:06 64° WNW 21:13:20 10° NNE
Cosmos 1371 Rocket 4.0 21:04:24 10° NNW 21:09:48 79° ENE 21:12:47 27° SSE
ARIANE 5 R/B 3.6 21:08:38 27° ESE 21:09:57 32° ENE 21:13:53 10° N
Cosmos 2360 Rocket 2.2 21:11:24 10° NNW 21:17:03 74° ENE 21:19:49 31° SE
NOSS 3-1 (C) 4.4 21:12:16 10° NNW 21:19:44 58° NE 21:24:48 26° ESE
Meteor 2-6 Rocket 4.1 21:17:34 10° N 21:22:57 69° E 21:25:21 33° SSE
Cosmos 1862 3.1 21:22:09 37° S 21:23:40 79° E 21:27:39 10° N
Cosmos 1500 Rocket 4.3 21:23:54 33° E 21:24:02 33° E 21:28:01 10° NNE
BREEZE-M DEB (TANK) 4.1 21:20:18 10° WNW 21:24:11 74° SSW 21:30:17 26° SE
Lacrosse 5 3.7 21:27:56 16° ENE 21:27:56 16° ENE 21:29:12 10° ENE
Gbstr 26 Del rocket 4.1 21:22:14 10° WNW 21:25:28 27° SW 21:26:23 24° SSW
COSMOS 2487 3.7 21:27:48 28° NE 21:27:48 28° NE 21:29:44 10° NNE
Cosmos 1782 3.8 21:23:05 10° NNW 21:26:53 43° W 21:29:13 20° SSW
S3M 4.2 21:21:31 10° N 21:27:48 54° E 21:30:25 34° SE
CZ-2C R/B 3.7 21:27:47 10° N 21:32:16 77° WNW 21:35:09 21° SSW
Cosmos 1812 2.7 21:28:26 10° N 21:32:19 80° W 21:33:11 51° S
SPOT 3 Rocket 4.1 21:30:39 21° S 21:33:59 55° W 21:39:07 10° NNW
JB-3 4.5 21:30:35 10° N 21:34:40 75° WNW 21:36:27 32° SSW
Meteor 2-16 Rocket 4.4 21:33:15 32° SSE 21:36:05 64° E 21:42:06 10° NNE
USA 229 DEB 4.5 21:30:11 10° NNW 21:37:14 47° NE 21:41:06 27° ESE
Cosmos 1048 Rocket 4.3 21:37:14 41° ESE 21:37:29 42° ESE 21:42:18 10° NNE
USA 245 3.5 21:36:08 43° S 21:37:32 77° WSW 21:41:20 10° NNW
Cosmos 1655 Rocket 4.0 21:35:24 32° SSE 21:38:25 64° E 21:44:45 10° NNE
Cosmos 1408 Rocket 3.5 21:38:21 40° SSW 21:39:51 85° W 21:44:12 10° N
Cosmos 2297 Rocket 4.2 21:46:41 12° ENE 21:46:41 12° ENE 21:47:39 10° ENE
Cosmos 1743 Rocket 3.6 21:46:04 57° ESE 21:46:11 58° E 21:50:31 10° NNE
GP-B 4.2 21:42:26 10° NNW 21:46:38 42° W 21:49:19 20° SW
Cosmos 1174 3.9 21:44:24 10° NW 21:46:47 52° NW 21:46:47 52° NW
Cosmos 2333 Rocket 2.3 21:43:22 10° NNW 21:49:00 65° ENE 21:50:27 47° ESE
CARTOSAT-1 3.6 21:49:34 56° SSW 21:50:23 74° WSW 21:54:43 10° NNW
Terra 2.1 21:50:04 48° E 21:50:35 50° ENE 21:55:11 10° N
Cosmos 2322 3.8 21:47:19 10° NNW 21:53:02 66° ENE 21:54:25 49° ESE
Cosmos 2322 Rocket 3.5 21:48:23 10° NW 21:53:17 32° WSW 21:56:16 19° SSW
Cosmos 2237 Rocket 4.0 21:49:29 10° N 21:53:30 19° NE 21:55:15 17° ENE
Cosmos 1420 Rocket 4.1 21:48:41 10° NNW 21:54:00 72° WSW 21:55:28 47° S
Cosmos 2227 Rocket 4.4 21:59:48 11° ENE 21:59:48 11° ENE 22:00:13 10° ENE
NOSS 3-1 (A) 4.3 21:50:28 10° NNW 21:58:00 62° NE 22:01:44 36° ESE
Cosmos 292 Rocket 4.0 21:55:23 10° NNW 22:00:06 63° WSW 22:00:58 52° SSW
ERS-1 Rocket 2.9 22:00:16 61° SSE 22:01:12 89° W 22:06:15 10° NNW
Meteor 1-27 Rocket 3.7 22:00:38 10° N 22:06:22 76° E 22:07:28 59° SE
Cosmos 2219 Rocket 2.1 22:01:25 10° NNW 22:07:01 74° ENE 22:07:54 61° SE
Cosmos 1515 Rocket 4.1 22:06:59 10° NNW 22:11:14 49° W 22:11:46 46° WSW
ATLAS 5 CENTAUR R/B 2.6 22:10:34 10° NNW 22:16:12 60° NE 22:17:33 49° E
Cosmos 1452 Rocket 3.3 22:14:18 10° NNW 22:19:34 85° WSW 22:19:58 77° S
Resurs 01 Rocket 4.4 22:20:56 10° WSW 22:22:14 11° W 22:23:33 10° WNW
SPOT 5 3.1 22:22:47 50° WSW 22:22:51 50° W 22:27:12 10° NNW
SL-16 R/B 4.5 22:22:25 10° NNE 22:24:54 13° NE 22:27:03 11° ENE
Cosmos 489 Rocket 4.4 22:28:49 49° SSW 22:30:42 84° WNW 22:37:06 10° NNE
COSMOS 2455 4.0 22:26:36 10° WSW 22:32:15 41° NW 22:37:56 10° NNE
Cosmos 1331 Rocket 4.1 22:32:26 10° NNW 22:37:20 63° NE 22:37:20 63° NE
Cosmos 1110 Rocket 4.0 22:32:48 10° NNW 22:37:55 72° NE 22:37:55 72° NE
Meteor 1-25 Rocket 4.0 22:41:48 88° E 22:41:48 88° E 22:47:23 10° N
Cosmos 2228 Rocket 3.7 22:38:20 10° NNW 22:42:05 53° WNW 22:42:05 53° WNW
ARIANE 5 R/B 4.4 22:46:11 23° W 22:46:24 23° W 22:49:57 10° NW
COSMOS 2428 2.8 22:42:03 10° NNW 22:47:41 64° WSW 22:47:44 64° WSW
H-2A R/B 4.4 22:43:38 10° N 22:46:54 48° NNW 22:46:54 48° NNW
Cosmos 2285 Rocket 4.1 22:43:06 10° NNW 22:49:18 63° WSW 22:49:57 59° SW
Cosmos 2315 Rocket 4.2 22:47:21 10° NNW 22:53:36 61° W 22:54:33 55° SW
Meteor 1-18 Rocket 4.5 22:49:16 10° N 22:54:39 59° ENE 22:54:39 59° ENE
Cosmos 2360 Rocket 4.3 22:57:22 10° WNW 23:00:20 15° W 23:01:35 14° WSW
Cosmos 2219 3.9 23:01:53 43° ENE 23:01:53 43° ENE 23:06:01 10° NNE
ALOS 2 4.4 23:02:12 24° NE 23:02:12 24° NE 23:04:39 10° N
NOSS 0 Rocket 3.8 22:59:53 10° NNW 23:06:04 83° W 23:06:04 83° W
Lacrosse 5 2.6 23:07:00 47° WNW 23:07:38 50° NW 23:12:35 10° NE
Meteor 1-19 Rocket 4.3 23:02:51 10° N 23:07:47 71° NNW 23:07:47 71° NNW
Cosmos 1745 Rocket 4.3 23:10:06 52° ENE 23:10:06 52° ENE 23:15:38 10° NNE
Cosmos 1980 3.8 23:10:49 10° NNW 23:15:51 70° N 23:15:51 70° N
Nadezhda 1 Rocket 4.1 23:20:40 10° N 23:26:45 68° ENE 23:26:45 68° ENE
Cosmos 2297 Rocket 2.5 23:28:28 65° NNW 23:28:28 65° NNW 23:33:31 10° NNE
USA 229 DEB 4.5 23:21:16 10° NW 23:28:14 44° WSW 23:28:31 43° WSW
USA 229 4.4 23:21:21 10° NW 23:28:20 44° WSW 23:28:37 44° WSW
Terra 4.0 23:28:57 17° W 23:28:57 17° W 23:31:38 10° NW
Cosmos 2333 Rocket 4.2 23:29:08 10° WNW 23:32:28 17° W 23:32:28 17° W
USA 267 3.1 23:27:06 10° NE 23:33:19 79° E 23:33:19 79° E
Cosmos 2237 Rocket 2.7 23:32:27 10° NNW 23:37:04 56° NW 23:37:04 56° NW
Cosmos 909 Rocket 4.1 23:40:26 86° ENE 23:40:26 86° ENE 23:47:53 10° NNE
Cosmos 2227 Rocket 2.6 23:41:36 61° N 23:41:36 61° N 23:46:21 10° NNE
Cosmos 2263 Rocket 4.2 23:49:57 17° ENE 23:49:57 17° ENE 23:52:00 10° NE
Cosmos 2219 Rocket 4.4 23:47:23 10° WNW 23:49:37 14° W 23:49:37 14° W
CZ-4C R/B 3.8 23:44:39 10° NNW 23:51:33 44° NE 23:54:41 32° E
